Meridian, MS

5:40 PM CDT on April 24, 2017 (GMT -0500)
Key

Weather History for KMEI - June, 2013

Change the Weather History Date:

Wednesday, June 5, 2013

  Actual Average Record
Temperature  
Mean Temperature 80 °F 76 °F  
Max Temperature 92 °F 88 °F 100 °F (1985)
Min Temperature 68 °F 64 °F 50 °F (1954)
Degree Days  
Heating Degree Days 0 0  
Month to date heating degree days 0 0  
Since 1 June heating degree days 0 0  
Since 1 July heating degree days 2512 2553  
Cooling Degree Days 15 11  
Month to date cooling degree days 66 52  
Year to date cooling degree days 326 335  
Since 1 June cooling degree days 66 52  
Growing Degree Days 30 (Base 50)    
Moisture  
Dew Point 70 °F    
Average Humidity 76    
Maximum Humidity 100    
Minimum Humidity 52    
Precipitation  
Precipitation 0.16 in 0.14 in 2.79 in (1998)
Month to date precipitation 1.09 0.72  
Year to date precipitation 35.72 26.15  
Sea Level Pressure  
Sea Level Pressure 29.91 in    
Wind  
Wind Speed 7 mph (South)    
Max Wind Speed 37 mph    
Max Gust Speed 54 mph    
Visibility 9 miles    
Events Rain , Thunderstorm    
T = Trace of Precipitation, MM = Missing Value Source: NWS Daily Summary

Daily Weather History Graph

Daily Weather History Graph

Search for Another Location

Airport or City:

Trip Planner

Search our weather history database for the weather conditions in past years. The results will help you decide how hot, cold, wet, or windy it might be!

Date:

Astronomy

Jun. 05, 2013 Rise Set
Actual Time 5:48 AM CDT 7:59 PM CDT
Civil Twilight 5:19 AM CDT 8:27 PM CDT
Nautical Twilight 4:45 AM CDT 9:01 PM CDT
Astronomical Twilight 4:08 AM CDT 9:38 PM CDT
Moon 3:44 AM CDT (6/5) 5:32 PM CDT (6/5)
Length of Visible Light 15h 07m
Length of Day
14h 11m
Waning Crescent, 8% of the Moon is Illuminated
Jun 5
Waning Crescent
Jun 8
New
Jun 16
First Quarter
Jun 23
Full
Jun 29
Last Quarter

Hourly Weather History & Observations

Time (CDT) Temp. Heat Index Dew Point Humidity Pressure Visibility Wind Dir Wind Speed Gust Speed Precip Events Conditions
12:58 AM 73.0 °F - 71.1 °F 93% 29.94 in 9.0 mi Calm Calm - N/A   Partly Cloudy
1:58 AM 73.0 °F - 71.1 °F 93% 29.92 in 10.0 mi Calm Calm - N/A   Clear
2:58 AM 73.0 °F - 71.1 °F 93% 29.92 in 10.0 mi Calm Calm - N/A   Clear
3:58 AM 72.0 °F - 70.0 °F 93% 29.93 in 9.0 mi South 3.5 mph - N/A   Clear
4:58 AM 72.0 °F - 71.1 °F 97% 29.93 in 10.0 mi South 3.5 mph - N/A   Partly Cloudy
5:58 AM 71.1 °F - 70.0 °F 96% 29.94 in 9.0 mi Calm Calm - 0.01 in   Clear
6:58 AM 73.0 °F - 72.0 °F 96% 29.95 in 10.0 mi Calm Calm - N/A   Partly Cloudy
7:19 AM 75.2 °F - 73.4 °F 94% 29.96 in 10.0 mi Calm Calm - N/A   Mostly Cloudy
7:38 AM 75.2 °F - 73.4 °F 94% 29.96 in 10.0 mi SSW 4.6 mph - N/A   Mostly Cloudy
7:58 AM 75.9 °F - 73.0 °F 91% 29.95 in 10.0 mi South 6.9 mph - N/A   Mostly Cloudy
8:48 AM 78.8 °F - 73.4 °F 83% 29.96 in 10.0 mi South 9.2 mph - N/A   Mostly Cloudy
8:58 AM 79.0 °F - 72.0 °F 79% 29.96 in 10.0 mi South 6.9 mph - N/A   Mostly Cloudy
9:05 AM 80.6 °F 85.4 °F 73.4 °F 79% 29.96 in 10.0 mi Variable 5.8 mph - N/A   Mostly Cloudy
9:12 AM 80.6 °F 84.6 °F 71.6 °F 74% 29.96 in 10.0 mi South 8.1 mph - N/A   Scattered Clouds
9:55 AM 82.4 °F 87.2 °F 71.6 °F 70% 29.96 in 10.0 mi South 8.1 mph - N/A   Scattered Clouds
9:58 AM 82.0 °F 86.7 °F 72.0 °F 71% 29.95 in 10.0 mi SSE 8.1 mph - N/A   Partly Cloudy
10:58 AM 84.9 °F 90.7 °F 72.0 °F 65% 29.96 in 10.0 mi South 6.9 mph - N/A   Clear
11:58 AM 84.9 °F 89.4 °F 70.0 °F 61% 29.95 in 10.0 mi Variable 4.6 mph - N/A   Scattered Clouds
12:58 PM 88.0 °F 93.8 °F 71.1 °F 57% 29.92 in 10.0 mi SSE 9.2 mph - N/A   Partly Cloudy
1:58 PM 89.1 °F 94.1 °F 70.0 °F 53% 29.88 in 10.0 mi South 6.9 mph - N/A   Clear
2:58 PM 87.1 °F 92.0 °F 70.0 °F 57% 29.86 in 10.0 mi SSW 4.6 mph - N/A   Partly Cloudy
3:58 PM 90.0 °F 95.4 °F 70.0 °F 52% 29.84 in 10.0 mi South 6.9 mph - N/A   Partly Cloudy
4:58 PM 90.0 °F 96.4 °F 71.1 °F 54% 29.83 in 10.0 mi SW 4.6 mph - N/A   Scattered Clouds
5:58 PM 78.1 °F - 66.0 °F 66% 29.86 in 10.0 mi NW 36.8 mph 54.1 mph N/A   Mostly Cloudy
6:04 PM 71.6 °F - 66.2 °F 83% 29.89 in 2.0 mi NNW 29.9 mph 54.1 mph 0.00 in Rain Rain
6:11 PM 69.8 °F - 68.0 °F 94% 29.90 in 1.0 mi NNW 15.0 mph 41.4 mph 0.13 in Rain Heavy Rain
6:18 PM 69.8 °F - 66.2 °F 88% 29.89 in 3.0 mi North 13.8 mph 20.7 mph 0.16 in Rain Light Rain
6:58 PM 72.0 °F - 68.0 °F 87% 29.84 in 10.0 mi NNE 8.1 mph - 0.16 in   Mostly Cloudy
7:58 PM 71.1 °F - 68.0 °F 90% 29.85 in 10.0 mi SE 11.5 mph - N/A   Scattered Clouds
8:19 PM 71.6 °F - 68.0 °F 88% 29.86 in 10.0 mi South 12.7 mph 18.4 mph N/A Thunderstorm Scattered Clouds
8:29 PM 69.8 °F - 68.0 °F 94% 29.85 in 10.0 mi SSE 9.2 mph - N/A Thunderstorm Thunderstorm
8:58 PM 71.1 °F - 68.0 °F 90% 29.87 in 10.0 mi South 4.6 mph - N/A Thunderstorm Thunderstorm
9:02 PM 71.6 °F - 68.0 °F 88% 29.88 in 10.0 mi South 5.8 mph - N/A Thunderstorm Thunderstorm
9:04 PM 71.6 °F - 68.0 °F 88% 29.89 in 10.0 mi SSW 4.6 mph - N/A Thunderstorm Mostly Cloudy
9:26 PM 71.6 °F - 68.0 °F 88% 29.92 in 10.0 mi NNE 5.8 mph - 0.00 in Rain Light Rain
9:58 PM 71.1 °F - 68.0 °F 90% 29.89 in 10.0 mi NE 8.1 mph - 0.00 in Rain Light Rain
10:10 PM 71.6 °F - 68.0 °F 88% 29.91 in 10.0 mi NNE 5.8 mph - 0.00 in Rain Light Rain
10:28 PM 71.6 °F - 68.0 °F 88% 29.91 in 10.0 mi NE 4.6 mph - 0.00 in   Scattered Clouds
10:58 PM 70.0 °F - 68.0 °F 93% 29.91 in 10.0 mi SW 6.9 mph - 0.00 in   Clear
11:46 PM 69.8 °F - 68.0 °F 94% 29.91 in 10.0 mi Calm Calm - N/A   Scattered Clouds
11:56 PM 69.8 °F - 68.0 °F 94% 29.91 in 10.0 mi Calm Calm - N/A   Mostly Cloudy
11:58 PM 70.0 °F - 68.0 °F 93% 29.90 in 10.0 mi ENE 4.6 mph - N/A   Mostly Cloudy